DLH2HL EDDM-EDDH

Flight info

Callsign DLH2HL
Flight time N/A
Altitude 34000
Route INPUD3Q/08L INPUD Y102 UPALA M726 NARUS DCT ABGUS DCT DIRBO/N0406F230 T902 RARUP RARUP6A
Aircraft A320/M-SDE3FGHIRWY/LB1

Departure

Time 2026-04-30 14:23
Airport Munich Airport (EDDM)

Arrival

Time N/A
Airport Hamburg Helmut Schmidt Airport (EDDH)
Time Latitude Longitude Altitude Speed Heading
2026-04-30 13:51 48.35739 11.79244 1468 ft 0 kts 264°
2026-04-30 14:08 48.35741 11.79265 1467 ft 2 kts 263°
2026-04-30 14:09 48.35743 11.79287 1467 ft 2 kts 264°
2026-04-30 14:09 48.35744 11.79310 1467 ft 2 kts 263°
2026-04-30 14:09 48.35748 11.79354 1466 ft 2 kts 263°
2026-04-30 14:10 48.35750 11.79377 1466 ft 2 kts 263°
2026-04-30 14:10 48.35746 11.79397 1466 ft 2 kts 313°
2026-04-30 14:10 48.35735 11.79407 1466 ft 0 kts 349°
2026-04-30 14:10 48.35729 11.79408 1466 ft 1 kts 355°
2026-04-30 14:11 48.35727 11.79408 1466 ft 0 kts 354°
2026-04-30 14:13 48.35735 11.79407 1466 ft 1 kts 355°
2026-04-30 14:13 48.35753 11.79405 1466 ft 3 kts 355°
2026-04-30 14:14 48.35778 11.79400 1466 ft 4 kts 353°
2026-04-30 14:14 48.35809 11.79394 1466 ft 5 kts 353°
2026-04-30 14:14 48.35849 11.79387 1466 ft 6 kts 353°
2026-04-30 14:14 48.35895 11.79377 1466 ft 5 kts 347°
2026-04-30 14:15 48.35930 11.79351 1466 ft 5 kts 333°
2026-04-30 14:15 48.35970 11.79337 1466 ft 6 kts 354°
2026-04-30 14:15 48.36013 11.79330 1466 ft 6 kts 354°
2026-04-30 14:15 48.36028 11.79328 1465 ft 2 kts 353°
2026-04-30 14:16 48.36033 11.79327 1465 ft 0 kts 353°
2026-04-30 14:16 48.36034 11.79327 1465 ft 1 kts 353°
2026-04-30 14:16 48.36058 11.79322 1464 ft 5 kts 349°
2026-04-30 14:16 48.36089 11.79275 1464 ft 7 kts 277°
2026-04-30 14:17 48.36085 11.79192 1464 ft 8 kts 263°
2026-04-30 14:17 48.36077 11.79092 1465 ft 10 kts 263°
2026-04-30 14:17 48.36068 11.78977 1465 ft 11 kts 264°
2026-04-30 14:17 48.36058 11.78846 1465 ft 13 kts 263°
2026-04-30 14:18 48.36047 11.78708 1467 ft 13 kts 263°
2026-04-30 14:18 48.36037 11.78575 1468 ft 13 kts 263°
2026-04-30 14:18 48.36013 11.78261 1464 ft 17 kts 263°
2026-04-30 14:19 48.35981 11.77840 1460 ft 21 kts 264°
2026-04-30 14:19 48.35962 11.77613 1461 ft 21 kts 263°
2026-04-30 14:19 48.35945 11.77401 1465 ft 19 kts 263°
2026-04-30 14:20 48.35931 11.77206 1468 ft 10 kts 263°
2026-04-30 14:20 48.35926 11.77122 1469 ft 7 kts 271°
2026-04-30 14:20 48.35995 11.76984 1469 ft 9 kts 337°
2026-04-30 14:21 48.36060 11.76969 1469 ft 8 kts 353°
2026-04-30 14:21 48.36120 11.76959 1469 ft 9 kts 354°
2026-04-30 14:21 48.36269 11.76963 1467 ft 13 kts 36°
2026-04-30 14:22 48.36303 11.77112 1466 ft 25 kts 85°
2026-04-30 14:22 48.36443 11.79004 1461 ft 149 kts 85°
2026-04-30 14:22 48.36537 11.80689 1745 ft 169 kts 85°
2026-04-30 14:23 48.36769 11.84128 3294 ft 162 kts 82°
2026-04-30 14:23 48.38012 11.87082 3954 ft 200 kts 30°
2026-04-30 14:24 48.41099 11.86697 4664 ft 254 kts 339°
2026-04-30 14:24 48.42604 11.85167 5122 ft 275 kts 319°
2026-04-30 14:25 48.45165 11.80753 6591 ft 285 kts 313°
2026-04-30 14:25 48.47890 11.76484 8143 ft 284 kts 333°
2026-04-30 14:26 48.51441 11.74026 9731 ft 285 kts 340°
2026-04-30 14:26 48.53255 11.72836 10511 ft 288 kts 340°
2026-04-30 14:26 48.57027 11.70225 11466 ft 316 kts 339°
2026-04-30 14:27 48.59043 11.68779 11904 ft 329 kts 338°
2026-04-30 14:27 48.61102 11.67275 12580 ft 332 kts 338°
2026-04-30 14:27 48.63168 11.65755 13303 ft 333 kts 338°
2026-04-30 14:28 48.67347 11.62666 14663 ft 339 kts 339°
2026-04-30 14:28 48.69490 11.61078 15310 ft 342 kts 339°
2026-04-30 14:28 48.71616 11.59500 15938 ft 345 kts 339°
2026-04-30 14:28 48.73768 11.57903 16557 ft 347 kts 339°
2026-04-30 14:29 48.78120 11.54668 17748 ft 352 kts 340°
2026-04-30 14:29 48.82539 11.51376 18891 ft 357 kts 340°
2026-04-30 14:30 48.89256 11.46362 20489 ft 365 kts 340°
2026-04-30 14:31 48.93818 11.42942 21555 ft 369 kts 340°
2026-04-30 14:31 48.98418 11.39490 22572 ft 373 kts 340°
2026-04-30 14:31 49.00751 11.37736 23058 ft 375 kts 340°
2026-04-30 14:32 49.05457 11.34191 23973 ft 380 kts 340°
2026-04-30 14:32 49.07813 11.32413 24375 ft 383 kts 340°
2026-04-30 14:32 49.10204 11.30607 24784 ft 385 kts 340°
2026-04-30 14:33 49.12645 11.28761 25220 ft 387 kts 340°
2026-04-30 14:33 49.17560 11.25041 26067 ft 391 kts 340°
2026-04-30 14:33 49.20095 11.23415 26446 ft 387 kts 348°
2026-04-30 14:34 49.22726 11.22467 26814 ft 383 kts 357°
2026-04-30 14:34 49.25397 11.22153 27183 ft 380 kts
2026-04-30 14:34 49.28085 11.22143 27572 ft 381 kts
2026-04-30 14:34 49.30699 11.22175 27915 ft 382 kts
2026-04-30 14:35 49.36045 11.22239 28533 ft 387 kts
2026-04-30 14:35 49.38763 11.22268 28853 ft 389 kts
2026-04-30 14:35 49.41475 11.22291 29160 ft 391 kts
2026-04-30 14:36 49.44161 11.22312 29456 ft 393 kts
2026-04-30 14:36 49.46898 11.22338 29764 ft 395 kts
2026-04-30 14:36 49.49668 11.22360 30064 ft 396 kts
2026-04-30 14:36 49.52417 11.22381 30341 ft 397 kts
2026-04-30 14:37 49.55161 11.22405 30615 ft 399 kts
2026-04-30 14:37 49.57949 11.22418 30876 ft 401 kts
2026-04-30 14:37 49.60716 11.22424 31105 ft 403 kts
2026-04-30 14:37 49.63516 11.22430 31351 ft 404 kts
2026-04-30 14:38 49.66332 11.22437 31615 ft 405 kts
2026-04-30 14:38 49.69122 11.22439 31887 ft 405 kts
2026-04-30 14:38 49.71938 11.22438 32192 ft 404 kts
2026-04-30 14:38 49.74749 11.22443 32492 ft 403 kts
2026-04-30 14:39 49.77547 11.22449 32749 ft 403 kts
2026-04-30 14:39 49.80312 11.22465 32962 ft 404 kts
2026-04-30 14:39 49.83135 11.22484 33159 ft 405 kts
2026-04-30 14:40 49.88768 11.22522 33564 ft 406 kts
2026-04-30 14:40 49.91576 11.22537 33742 ft 407 kts
2026-04-30 14:40 49.94392 11.22553 33926 ft 407 kts
2026-04-30 14:40 49.97230 11.22569 34111 ft 407 kts
2026-04-30 14:41 50.00052 11.22584 34301 ft 407 kts
2026-04-30 14:41 50.02877 11.22599 34344 ft 408 kts
2026-04-30 14:41 50.08528 11.22633 34357 ft 408 kts
2026-04-30 14:42 50.14204 11.22669 34356 ft 409 kts
2026-04-30 14:42 50.19880 11.22703 34350 ft 409 kts
2026-04-30 14:43 50.25545 11.22736 34357 ft 408 kts
2026-04-30 14:43 50.31195 11.22766 34362 ft 409 kts
2026-04-30 14:44 50.36881 11.22608 34357 ft 411 kts
2026-04-30 14:44 50.42582 11.21831 34356 ft 413 kts 359°
2026-04-30 14:45 50.48314 11.20960 34351 ft 413 kts 359°
2026-04-30 14:45 50.54022 11.20092 34358 ft 413 kts 359°
2026-04-30 14:46 50.59724 11.19225 34362 ft 413 kts 359°
2026-04-30 14:46 50.65430 11.18357 34359 ft 412 kts 359°
2026-04-30 14:47 50.71117 11.17646 34357 ft 412 kts
2026-04-30 14:47 50.76826 11.17080 34375 ft 413 kts
2026-04-30 14:48 50.82531 11.16500 34380 ft 413 kts
2026-04-30 14:48 50.88239 11.15908 34389 ft 412 kts
2026-04-30 14:49 50.93922 11.15314 34398 ft 413 kts
2026-04-30 14:49 50.99678 11.14709 34407 ft 415 kts
2026-04-30 14:50 51.08278 11.13797 34424 ft 414 kts
2026-04-30 14:51 51.16853 11.12889 34420 ft 413 kts
2026-04-30 14:52 51.25425 11.11973 34419 ft 414 kts
2026-04-30 14:52 51.34037 11.11052 34423 ft 415 kts
2026-04-30 14:53 51.42657 11.10126 34422 ft 414 kts
2026-04-30 14:54 51.54129 11.08890 34425 ft 416 kts
2026-04-30 14:55 51.62748 11.07955 34426 ft 416 kts
2026-04-30 14:56 51.74272 11.06697 34426 ft 416 kts
2026-04-30 14:57 51.82901 11.05752 34429 ft 417 kts 360°
2026-04-30 14:58 51.94453 11.03713 34432 ft 419 kts 356°
2026-04-30 14:58 52.03086 11.01860 34438 ft 419 kts 356°
2026-04-30 14:59 52.08910 11.00615 34093 ft 419 kts 356°
2026-04-30 15:00 52.17471 10.98770 33284 ft 413 kts 356°
2026-04-30 15:00 52.23172 10.97542 32745 ft 414 kts 356°
2026-04-30 15:01 52.28853 10.96317 32207 ft 416 kts 356°
2026-04-30 15:01 52.31754 10.95690 31934 ft 417 kts 356°
2026-04-30 15:01 52.37454 10.94453 31398 ft 416 kts 356°
2026-04-30 15:02 52.40320 10.93831 31128 ft 414 kts 356°
2026-04-30 15:02 52.43152 10.93216 30861 ft 413 kts 356°
2026-04-30 15:03 52.51643 10.91363 30054 ft 409 kts 356°
2026-04-30 15:03 52.57273 10.90132 29517 ft 408 kts 356°
2026-04-30 15:04 52.62855 10.88907 28982 ft 405 kts 356°
2026-04-30 15:04 52.71151 10.87077 28181 ft 400 kts 356°
2026-04-30 15:05 52.79332 10.85269 27258 ft 396 kts 356°
2026-04-30 15:06 52.84761 10.84079 26351 ft 390 kts 357°
2026-04-30 15:06 52.90087 10.83003 25370 ft 384 kts 357°
2026-04-30 15:07 52.95342 10.81940 24399 ft 377 kts 357°
2026-04-30 15:07 53.00476 10.80895 23450 ft 371 kts 358°
2026-04-30 15:08 53.05527 10.79864 22506 ft 365 kts 358°
2026-04-30 15:08 53.12962 10.78343 21100 ft 357 kts 358°
2026-04-30 15:09 53.17846 10.77338 20166 ft 352 kts 358°
2026-04-30 15:09 53.22668 10.76345 19248 ft 349 kts 358°
2026-04-30 15:10 53.27450 10.75354 18300 ft 345 kts 359°
2026-04-30 15:11 53.36871 10.73405 16472 ft 339 kts 359°
2026-04-30 15:11 53.41510 10.72440 15567 ft 337 kts 359°
2026-04-30 15:12 53.48449 10.70992 14198 ft 333 kts 359°
2026-04-30 15:13 53.53009 10.70037 13272 ft 329 kts 359°
2026-04-30 15:14 53.61429 10.65452 11482 ft 346 kts 311°
2026-04-30 15:14 53.61646 10.53565 11273 ft 362 kts 252°
2026-04-30 15:16 53.57671 10.33504 11340 ft 363 kts 252°
2026-04-30 15:17 53.54557 10.17393 11405 ft 363 kts 252°
2026-04-30 15:18 53.50807 9.98173 11428 ft 312 kts 252°
2026-04-30 15:19 53.47676 9.89424 11435 ft 288 kts 227°